This is the latest recevied weather packets stored in our database for station/object NK2J. If no packets are shown the sender has not sent any weather packets the latest 10 day(s).
| Time | Temp. | Humidity | Pressure | Rain* | Wind** | Luminosity | Snow |
|---|---|---|---|---|---|---|---|
| 1778027902 | 23.89° C | 26% | 1011.7 hPa | 0 mm | - | 164 W/m² | - |
| 1778027598 | 24.44° C | 25% | 1011.6 hPa | 0 mm | - | 198 W/m² | - |
| 1778027295 | 24.44° C | 27% | 1011.5 hPa | 0 mm | - | 210 W/m² | - |
| 1778026991 | 24.44° C | 26% | 1011.5 hPa | 0 mm | - | 222 W/m² | - |
| 1778026687 | 23.89° C | 27% | 1011.5 hPa | 0 mm | - | 242 W/m² | - |
| 1778026385 | 23.89° C | 26% | 1011.3 hPa | 0 mm | - | 247 W/m² | - |
| 1778026081 | 23.89° C | 27% | 1011.3 hPa | 0 mm | - | 222 W/m² | - |
| 1778025779 | 23.89° C | 27% | 1011.5 hPa | 0 mm | - | 279 W/m² | - |
| 1778025475 | 23.89° C | 27% | 1011.6 hPa | 0 mm | - | 82 W/m² | - |
| 1778025173 | 24.44° C | 26% | 1011.4 hPa | 0 mm | - | 281 W/m² | - |
| 1778024870 | 24.44° C | 26% | 1011.3 hPa | 0 mm | - | 303 W/m² | - |
| 1778024568 | 23.89° C | 27% | 1011.5 hPa | 0 mm | - | 325 W/m² | - |
| 1778024264 | 24.44° C | 27% | 1011.4 hPa | 0 mm | - | 71 W/m² | - |
| 1778023962 | 24.44° C | 27% | 1011.3 hPa | 0 mm | - | 343 W/m² | - |
| 1778023659 | 24.44° C | 26% | 1011.2 hPa | 0 mm | - | 358 W/m² | - |
| 1778023356 | 24.44° C | 28% | 1011.4 hPa | 0 mm | - | 368 W/m² | - |
| 1778023052 | 25° C | 27% | 1011.3 hPa | 0 mm | - | 377 W/m² | - |
| 1778022752 | 24.44° C | 28% | 1011.2 hPa | 0 mm | - | 284 W/m² | - |
| 1778022450 | 25° C | 27% | 1011.4 hPa | 0 mm | - | 417 W/m² | - |
| 1778022146 | 25° C | 27% | 1011.2 hPa | 0 mm | - | 443 W/m² | - |
| 1778021843 | 24.44° C | 27% | 1011.2 hPa | 0 mm | - | 451 W/m² | - |
| 1778021540 | 24.44° C | 27% | 1011.4 hPa | 0 mm | - | 467 W/m² | - |
| 1778021235 | 25° C | 27% | 1011.4 hPa | 0 mm | - | 477 W/m² | - |
| 1778020933 | 25° C | 27% | 1011.4 hPa | 0 mm | - | 494 W/m² | - |
| 1778020630 | 25° C | 27% | 1011.4 hPa | 0 mm | - | 520 W/m² | - |
* Rain latest hour (hover to see other rain measurements)
** Current wind speed in m/s (hover to see current wind gust speed)